860  
ASUS44 KMOB 162212  
RWRMOB  
REGIONAL WEATHER ROUNDUP  
NATIONAL WEATHER SERVICE MOBILE AL  
500 PM CDT MON SEP 16 2019  
 
NOTE: "FAIR" INDICATES FEW OR NO CLOUDS BELOW 12,000 FEET WITH NO  
SIGNIFICANT WEATHER AND/OR S TO VISIBILITY
.  
 
* THESE STATIONS ARE PART OF THE UNIVERSITY OF SOUTH ALABAMA  
MESONET AND ARE NOT UNDER NWS OR FAA QUALITY CONTROL.
 
 
ALZ061>064-162300-  
COASTAL ALABAMA  
 
CITY SKY/WX TMP DP RH WIND PRES REMARKS
 
MOBILE REG APT PTSUNNY 89 74 60 SW5 29.98F HX 98  
BROOKLEY FIELD FAIR 89 72 56 S5 29.99F HX 96  
USA CAMPUS* N/A 90 72 55 CALM 30.00F HX 96  
DOG RIVER* N/A 90 70 51 S5 29.98F HX 95  
 
 
CITY SKY/WX TMP DP RH WIND PRES REMARKS
 
GULF SHORES FAIR 85 75 71 S3 29.99S  
 

 
 
ALZ051>060-162300-  
INTERIOR SOUTHWEST AND SOUTH CENTRAL ALABAMA  
 
CITY SKY/WX TMP DP RH WIND PRES REMARKS
 
GREENVILLE FAIR 96 60 30 NE5 29.98F HX 96  
EVERGREEN FAIR 95 64 35 SW3 29.98F HX 97  
ATMORE* N/A 88 72 58 CALM 29.98S  
ANDALUSIA/OPP FAIR 99 59 26 NE8 29.98S HX 99  
ANDALUSIA* N/A 95 57 28 E8 29.99F  
FLORALA APT FAIR 96 59 29 E7 29.98F HX 95  
FLORALA* N/A 95 59 30 CALM 29.98F  
 

 
 
FLZ001>006-162300-  
WESTERN FLORIDA PANHANDLE  
 
CITY SKY/WX TMP DP RH WIND PRES REMARKS
 
PENSACOLA NOT AVBL  
NAS PENSACOLA PTSUNNY 87 77 72 S8 29.98S HX 99  
MILTON NOT AVBL  
WHTNG S FIELD PTSUNNY 86 74 67 CALM 29.98F  
 
 
CITY SKY/WX TMP DP RH WIND PRES REMARKS
 
JAY* N/A 88 72 58 S12 29.99S  
DUKE FIELD FAIR 88 73 61 W8 29.97F HX 96  
CRESTVIEW FAIR 89 71 55 W9 29.98F HX 95  
VALPARAISO FAIR 87 73 62 SW6 29.97F HX 95  
DESTIN FAIR 86 76 71 W7 29.97F HX 96  
 

 
 
MSZ076-079-162300-  
INTERIOR SOUTHEAST MISSISSIPPI  
 
CITY SKY/WX TMP DP RH WIND PRES REMARKS
 
LEAKESVILLE* N/A 90 72 55 W6 30.00 HX 96  
AGRICOLA* N/A 90 73 58 CALM 30.00 HX 98  
 

 
 
MARINE OBSERVATIONS  
 
STATION/POSITION TIME TEMP WIND PRES WAVE
 
AIR SEA DIR/SP/G HT/PER  
(UTC) (F) (DEG/KT/KT) (MB) (FT/S)  
PETIT BOIS ISLND 2130 70/ 4/ 5 N/A  
GRAND BAY 1945 83 160/ 3 1018.0  
KATRINA CUT 2130 84 70/ 2 1015.9F  
CEDAR POINT 2130 85 60/ 2 1015.2F  
E DAUPHIN ISLAND 2100 85 80/ 2/ 2 1015.4F  
MIDDLE BAY LIGHT 2130 86 180/ 4 1015.2F  
USCG MOBILE BAY 2130 90 86 180/ 6/ 9 1015.4F  
STATE DOCKS 2130 87 87 1015.4F  
MEAHER PARK 2130 83 160/ 2 1015.2F  
WEEKS BAY 2045 88 1016.0S  
FORT MORGAN 2130 85 140/ 4/ 5 1015.5S  
12 S ORANGE BCH 2150 83 86 70/ 2/ 4 1015.5F 1/ 5  
PENSACOLA BAY 2130 86 87 180/ 3/ 6 1015.3F  
64 S DAUPHIN ISL 2150 84 110/ 6/ 8 1015.5S 2/ 6  
 

 
 
SELECTED LOCATIONS ACROSS THE REGION  
 
CITY SKY/WX TMP DP RH WIND PRES REMARKS
 
NEW ORLEANS LGT RAIN 85 75 72 SE9 29.97F  
GULFPORT FAIR 86 70 58 SE6 29.97F  
PASCAGOULA AP FAIR 89 71 55 S5 29.98F HX 95  
PASCAGOULA* N/A 88 70 55 CALM 29.97  
HATTIESBURG FAIR 84 71 65 S5 29.99S  
LAUREL FAIR 94 69 44 SE7 29.99F HX 99  
MERIDIAN FAIR 98 63 31 E8 29.98F HX 100  
JACKSON FAIR 95 65 37 SE7 29.99S HX 97  
MONTGOMERY FAIR 99 61 28 VRB7 29.97F HX 99  
TROY PTSUNNY 96 64 34 E3 29.99S HX 98  
ASHFORD* N/A 95 57 28 E8 29.99F  
DOTHAN FAIR 97 62 31 NE6 30.00F HX 98  
PANAMA CITY FAIR 89 73 59 SW8 29.96S HX 97  
 

 
 
 
 
CLICK HERE TO GO TO PREVIOUS BULLETINS.

The Nexlab AL Page
The Nexlab FL Page
The Nexlab MS Page Main Text Page